Glens Falls, NY

4:44 AM EDT on July 28, 2017 (GMT -0400)
Bennett Memorial

Weather History for KGFL - March, 2013

Change the Weather History Date:

Sunday, March 31, 2013

  Actual Average Record
Temperature  
Mean Temperature 39 °F 38 °F  
Max Temperature 56 °F 49 °F 86 °F (1998)
Min Temperature 22 °F 27 °F 8 °F (1954)
Degree Days  
Heating Degree Days 26 27  
Month to date heating degree days 986 1043  
Since 1 July heating degree days 6087 6663  
Cooling Degree Days 0 0  
Month to date cooling degree days 0 0  
Year to date cooling degree days 0 0  
Moisture  
Dew Point 27 °F    
Average Humidity 58    
Maximum Humidity 89    
Minimum Humidity 27    
Precipitation  
Precipitation 0.30 in 0.09 in 0.94 in (2017)
Month to date precipitation 3.11 2.94  
Year to date precipitation 5.41 7.88  
Sea Level Pressure  
Sea Level Pressure 29.95 in    
Wind  
Wind Speed 7 mph (South)    
Max Wind Speed 25 mph    
Max Gust Speed 35 mph    
Visibility 9 miles    
Events Rain    
T = Trace of Precipitation, MM = Missing Value Source: NWS Daily Summary

Daily Weather History Graph

Daily Weather History Graph

Search for Another Location

Airport or City:

Trip Planner

Search our weather history database for the weather conditions in past years. The results will help you decide how hot, cold, wet, or windy it might be!

Date:

Astronomy

Mar. 31, 2013 Rise Set
Actual Time 6:37 AM EDT 7:20 PM EDT
Civil Twilight 6:08 AM EDT 7:48 PM EDT
Nautical Twilight 5:34 AM EDT 8:23 PM EDT
Astronomical Twilight 4:59 AM EDT 8:58 PM EDT
Moon No Moon Rise 9:15 AM EDT (3/31)
Length of Visible Light 13h 40m
Length of Day
12h 42m
Waning Gibbous, 78% of the Moon is Illuminated
Mar 31
Waning Gibbous
Apr 3
Last Quarter
Apr 10
New
Apr 18
First Quarter
Apr 25
Full

Hourly Weather History & Observations

Time (EDT) Temp. Windchill Dew Point Humidity Pressure Visibility Wind Dir Wind Speed Gust Speed Precip Events Conditions
12:53 AM 27.0 °F - 21.0 °F 78% 30.12 in 10.0 mi Calm Calm - N/A   Clear
1:53 AM 25.0 °F - 19.9 °F 81% 30.12 in 10.0 mi Calm Calm - N/A   Clear
2:53 AM 24.1 °F - 19.9 °F 84% 30.11 in 10.0 mi Calm Calm - N/A   Clear
3:53 AM 25.0 °F - 19.0 °F 78% 30.12 in 10.0 mi Calm Calm - N/A   Clear
4:53 AM 24.1 °F - 18.0 °F 77% 30.10 in 10.0 mi Calm Calm - N/A   Clear
5:53 AM 24.1 °F - 19.0 °F 81% 30.09 in 10.0 mi Calm Calm - N/A   Clear
6:53 AM 23.0 °F - 18.0 °F 81% 30.09 in 10.0 mi Calm Calm - N/A   Clear
7:53 AM 27.0 °F - 21.9 °F 81% 30.09 in 10.0 mi Calm Calm - N/A   Clear
8:53 AM 34.0 °F - 24.1 °F 67% 30.07 in 10.0 mi Calm Calm - N/A   Clear
9:53 AM 39.9 °F 37.8 °F 23.0 °F 51% 30.05 in 8.0 mi Variable 3.5 mph - N/A   Clear
10:53 AM 45.0 °F 40.6 °F 24.1 °F 44% 30.03 in 10.0 mi South 8.1 mph - N/A   Clear
11:53 AM 48.0 °F - 25.0 °F 41% 30.00 in 10.0 mi Variable 3.5 mph - N/A   Clear
12:53 PM 53.1 °F - 24.1 °F 32% 29.95 in 10.0 mi SSW 9.2 mph - N/A   Clear
1:53 PM 55.0 °F - 23.0 °F 29% 29.92 in 10.0 mi South 25.3 mph 32.2 mph N/A   Clear
2:53 PM 55.0 °F - 23.0 °F 29% 29.88 in 10.0 mi South 18.4 mph 26.5 mph N/A   Scattered Clouds
3:53 PM 55.0 °F - 25.0 °F 31% 29.86 in 10.0 mi SSW 19.6 mph 29.9 mph N/A   Mostly Cloudy
4:53 PM 54.0 °F - 28.0 °F 37% 29.84 in 10.0 mi South 11.5 mph 16.1 mph N/A   Overcast
5:53 PM 53.1 °F - 28.0 °F 38% 29.82 in 10.0 mi South 16.1 mph - N/A   Overcast
6:53 PM 51.1 °F - 33.1 °F 50% 29.83 in 10.0 mi SSW 20.7 mph 27.6 mph 0.00 in Rain Light Rain
7:53 PM 45.0 °F 39.7 °F 37.0 °F 74% 29.83 in 9.0 mi South 10.4 mph - 0.01 in Rain Light Rain
8:50 PM 42.8 °F 38.6 °F 37.4 °F 81% 29.80 in 5.0 mi South 6.9 mph - 0.04 in Rain Light Rain
8:53 PM 43.0 °F 39.5 °F 37.9 °F 82% 29.82 in 5.0 mi SSE 5.8 mph - 0.04 in Rain Light Rain
9:26 PM 42.8 °F - 39.2 °F 87% 29.79 in 6.0 mi Calm Calm - 0.02 in Rain Light Rain
9:53 PM 42.1 °F - 39.0 °F 89% 29.80 in 5.0 mi Calm Calm - 0.05 in Rain Light Rain
10:53 PM 42.1 °F 40.2 °F 37.9 °F 85% 29.77 in 4.0 mi SSE 3.5 mph - 0.08 in Rain Light Rain
11:53 PM 41.0 °F 39.0 °F 37.9 °F 89% 29.74 in 5.0 mi South 3.5 mph - 0.09 in Rain Light Rain